Regional Weather Roundup
Issued by NWS Kansas City/Pleasant Hill, MO

Home | Current Version | Previous Version | Graphics & Text | Print | Product List | Glossary Off
Versions: 1 2 3 4 5 6 7 8 9 10 11 12 13 14 15 16 17 18 19 20 21 22 23 24 25 26 27 28 29 30 31 32 33 34 35 36 37 38 39 40 41 42 43 44 45 46 47 48 49 50

000
ASUS43 KEAX 221304
RWREAX

WEATHER ROUNDUP FOR EASTERN KANSAS AND NORTHWEST MISSOURI
NATIONAL WEATHER SERVICE KANSAS CITY/PLEASANT HILL MO
700 AM CST MON DEC 22 2014

KSZ040-057-103>105-MOZ028-029-037-043-221400-
...KANSAS CITY METROPOLITAN AREA...

CITY           SKY/WX    TMP DP  RH WIND       PRES   REMARKS
K.C. INTL      LGT RAIN  42  40  92 SE14      29.60F FOG     WCI  35
K.C. DOWNTOWN  LGT RAIN  43  40  89 SE10      29.61F
LEES SUMMIT    LGT RAIN  42  40  92 S8        29.62F
OLATHE - IXD   LGT RAIN  41  41 100 S10       29.61S FOG     WCI  35
OLATHE - OJC   LGT RAIN  41  41 100 S10       29.60F FOG     WCI  35
LAWRENCE       CLOUDY    42  41  96 SE9       29.60S

$$

MOZ001>008-011>017-020>025-030>033-038>040-044>046-053-054-221400-
...NORTHERN AND CENTRAL MISSOURI...

CITY           SKY/WX    TMP DP  RH WIND       PRES   REMARKS
ST. JOSEPH     LGT RAIN  42  40  92 S8        29.60F FOG
MOSBY          LGT RAIN  41  41 100 SE3       29.63S
WARRENSBURG    CLOUDY    41  37  87 SE7       29.64F
WHITEMAN AFB   CLOUDY    41  38  88 SE7       29.64F
CLINTON        CLOUDY    43  39  87 SE5       29.65F
SEDALIA        LGT RAIN  41  37  86 SE7       29.66F
WARSAW         NOT AVBL
MARSHALL       CLOUDY    43  39  87 SE8       29.68F FOG
CHILLICOTHE      N/A     42  36  79 SE7       29.67S
MOBERLY        CLOUDY    41  34  75 SE8       29.70
KIRKSVILLE     CLOUDY    39  36  89 SE9       29.70F WCI  33

$$

MOZ041-047>049-056>058-063>065-088>090-097-221400-
...EASTERN AND SOUTHERN MISSOURI...

CITY           SKY/WX    TMP DP  RH WIND       PRES   REMARKS
ST. LOUIS INTL LGT RAIN  40  36  86 SE13      29.78F WCI  32
SPIRIT OF STL  LGT RAIN  39  36  89 SE5       29.77S
COLUMBIA       CLOUDY    40  38  93 SE9       29.69F WCI  34
JEFFERSON CITY LGT RAIN  41  39  93 E5        29.71S FOG
MEXICO         CLOUDY   N/A N/A N/A SE7       29.71  HAZE
ROLLA          CLOUDY    40  39  97 SE10      29.67F FOG     WCI  33
LEBANON        CLOUDY    41  39  93 SE7       29.67F FOG
OSAGE BEACH    CLOUDY    43  37  81 S5        29.68S
SPRINGFIELD    CLOUDY    42  39  89 SE13      29.65R
BRANSON        MOCLDY    41  39  93 CALM      29.67F
JOPLIN         CLOUDY    45  43  93 SE8       29.63S FOG
WEST PLAINS    CLOUDY    44  42  93 S8        29.72R FOG

$$

IAZ060-094-KSZ022-034>040-054-083-096-NEZ052-066-093-221400-
...KANSAS...SOUTHEAST NEBRASKA AND IOWA...

CITY           SKY/WX    TMP DP  RH WIND       PRES   REMARKS
TOPEKA         LGT RAIN  45  43  93 SE9       29.58F
MANHATTAN      LGT RAIN  44  43  96 SW7       29.54F
EMPORIA        CLOUDY    43  43 100 S13       29.56F FOG
CHANUTE        CLOUDY    44  44 100 SE10      29.60F FOG
WICHITA        DRIZZLE   46  44  93 S5        29.57R FOG
OMAHA          LGT RAIN  42  41  96 SE15      29.55F FOG     WCI  34
LINCOLN        LGT RAIN  43  42  97 S8        29.53S FOG
FALLS CITY     LGT RAIN  42  40  92 SE10      29.57S
LAMONI         CLOUDY    39  36  89 SE10      29.63F WCI  32
DES MOINES     LGT RAIN  40  37  89 SE13      29.65F WCI  32

$$



USA.gov is the U.S. government's official web portal to all federal, state and local government web resources and services.